This is the latest recevied weather packets stored in our database for station/object KN6WGU. If no packets are shown the sender has not sent any weather packets the latest 10 day(s).
| Time | Temp. | Humidity | Pressure | Rain* | Wind** | Luminosity | Snow |
|---|---|---|---|---|---|---|---|
| 1777937272 | 22.78° C | 51% | 995.3 hPa | 0 mm | - | 28 W/m² | - |
| 1777936969 | 22.78° C | 51% | 995 hPa | 0 mm | - | 34 W/m² | - |
| 1777936666 | 23.33° C | 50% | 995.1 hPa | 0 mm | - | 53 W/m² | - |
| 1777936362 | 23.33° C | 51% | 995 hPa | 0 mm | - | 61 W/m² | - |
| 1777936058 | 23.33° C | 51% | 995.3 hPa | 0 mm | - | 80 W/m² | - |
| 1777935757 | 23.33° C | 50% | 995.1 hPa | 0 mm | - | 89 W/m² | - |
| 1777935455 | 23.33° C | 51% | 995.2 hPa | 0 mm | - | 101 W/m² | - |
| 1777935151 | 23.33° C | 52% | 995.2 hPa | 0 mm | - | 92 W/m² | - |
| 1777934848 | 22.78° C | 53% | 995.4 hPa | 0 mm | - | 71 W/m² | - |
| 1777934540 | 23.33° C | 53% | 995.5 hPa | 0 mm | - | 73 W/m² | - |
| 1777934237 | 22.78° C | 53% | 995.4 hPa | 0 mm | - | 79 W/m² | - |
| 1777933932 | 23.33° C | 54% | 995.6 hPa | 0 mm | - | 67 W/m² | - |
| 1777933630 | 23.33° C | 54% | 995.9 hPa | 0 mm | - | 97 W/m² | - |
| 1777933326 | 22.78° C | 54% | 995.6 hPa | 0 mm | - | 111 W/m² | - |
| 1777933024 | 23.33° C | 53% | 995.6 hPa | 0 mm | - | 98 W/m² | - |
| 1777932721 | 22.78° C | 52% | 995.8 hPa | 0 mm | - | 88 W/m² | - |
| 1777932417 | 22.78° C | 53% | 995.9 hPa | 0 mm | - | 67 W/m² | - |
| 1777932115 | 22.78° C | 53% | 995.9 hPa | 0 mm | - | 81 W/m² | - |
| 1777931811 | 22.78° C | 54% | 995.9 hPa | 0 mm | - | 113 W/m² | - |
| 1777931508 | 22.78° C | 53% | 996.1 hPa | 0 mm | - | 67 W/m² | - |
| 1777931204 | 22.78° C | 53% | 996.3 hPa | 0 mm | - | 215 W/m² | - |
| 1777930901 | 22.78° C | 52% | 996 hPa | 0 mm | - | 129 W/m² | - |
| 1777930597 | 22.78° C | 52% | 995.7 hPa | 0 mm | - | 58 W/m² | - |
| 1777930294 | 23.33° C | 52% | 996 hPa | 0 mm | - | 113 W/m² | - |
| 1777929990 | 22.78° C | 55% | 996.1 hPa | 0 mm | - | 227 W/m² | - |
* Rain latest hour (hover to see other rain measurements)
** Current wind speed in m/s (hover to see current wind gust speed)